Fredericksburg, VA

5:00 PM EST on December 12, 2019 (GMT -0500)
Shannon

Weather History for KEZF - November, 2019

Change the Weather History Date:

Tuesday, November 19, 2019

  Actual Average (WUND) Record (WUND)
Temperature  
Mean Temperature 46 °F -  
Max Temperature 51 °F - - (-1)
Min Temperature 43 °F - - (-1)
Degree Days  
Heating Degree Days 18    
Moisture  
Dew Point 45 °F    
Average Humidity 96    
Maximum Humidity 100    
Minimum Humidity 82    
Precipitation  
Precipitation 0.10 in - - ()
Sea Level Pressure  
Sea Level Pressure 29.83 in    
Wind  
Wind Speed 2 mph ()    
Max Wind Speed 7 mph    
Max Gust Speed -    
Visibility 9.6 miles    
Events      
Averages and records for this station are not official NWS values.
T = Trace of Precipitation, MM = Missing Value Source: Averaged Metar Reports

Daily Weather History Graph

Daily Weather History Graph

Search for Another Location

Airport or City:

Astronomy

Nov. 19, 2019 Rise Set
Actual Time 6:55 AM EST 4:54 PM EST
Civil Twilight 6:26 AM EST 5:23 PM EST
Nautical Twilight 5:54 AM EST 5:55 PM EST
Astronomical Twilight 5:23 AM EST 6:26 PM EST
Moon 11:47 PM EST (11/19) 1:04 PM EST (11/19)
Length of Visible Light 10h 56m
Length of Day
9h 59m
Waning Gibbous, 52% of the Moon is Illuminated
Nov 19
Waning Gibbous
Nov 19
Last Quarter
Nov 26
New
Dec 4
First Quarter
Dec 12
Full

Hourly Weather History & Observations

Time (EST) Temp. Windchill Dew Point Humidity Pressure Visibility Wind Dir Wind Speed Gust Speed Precip Events Conditions
12:15 AM 44.6 °F - 44.6 °F 100% 29.78 in 7.0 mi Calm Calm - N/A   Overcast
12:35 AM 44.6 °F - 44.6 °F 100% 29.78 in 7.0 mi Calm Calm - N/A   Light Drizzle
12:55 AM 45.0 °F - 45.0 °F 100% 29.78 in 7.0 mi Calm Calm - N/A   Overcast
1:15 AM 45.0 °F - 45.0 °F 100% 29.78 in 7.0 mi Calm Calm - N/A   Overcast
1:35 AM 45.1 °F - 45.1 °F 100% 29.77 in 10.0 mi Calm Calm - N/A   Drizzle
1:55 AM 45.0 °F - 45.0 °F 100% 29.77 in 7.0 mi Calm Calm - N/A   Overcast
2:35 AM 44.1 °F 41.5 °F 44.1 °F 100% 29.78 in 4.0 mi SSW 4.6 mph - N/A   Overcast
2:55 AM 44.6 °F 41.4 °F 44.6 °F 100% 29.78 in 7.0 mi SW 5.8 mph - N/A   Overcast
3:15 AM 44.6 °F 40.7 °F 44.6 °F 100% 29.78 in 10.0 mi SW 6.9 mph - N/A   Overcast
3:35 AM 44.8 °F 42.4 °F 44.8 °F 100% 29.78 in 10.0 mi West 4.6 mph - N/A   Overcast
3:55 AM 45.0 °F - 45.0 °F 100% 29.78 in 10.0 mi Calm Calm - N/A   Overcast
4:35 AM 45.1 °F - 45.1 °F 100% 29.78 in 10.0 mi Calm Calm - N/A   Overcast
4:55 AM 45.1 °F - 45.1 °F 100% 29.79 in 10.0 mi Calm Calm - N/A   Overcast
5:15 AM 45.0 °F 42.6 °F 45.0 °F 100% 29.79 in 10.0 mi West 4.6 mph - N/A   Overcast
5:35 AM 44.8 °F 43.3 °F 44.8 °F 100% 29.80 in 10.0 mi SSW 3.5 mph - N/A   Overcast
5:55 AM 44.6 °F - 44.6 °F 100% 29.81 in 10.0 mi Calm Calm - N/A   Overcast
6:15 AM 44.6 °F 42.2 °F 44.6 °F 100% 29.81 in 10.0 mi WNW 4.6 mph - N/A   Overcast
6:35 AM 44.2 °F 41.8 °F 43.9 °F 99% 29.81 in 10.0 mi WSW 4.6 mph - N/A   Overcast
6:55 AM 44.2 °F 42.7 °F 44.2 °F 100% 29.82 in 10.0 mi SW 3.5 mph - N/A   Overcast
7:15 AM 44.2 °F - 44.2 °F 100% 29.83 in 10.0 mi Calm Calm - N/A   Overcast
7:35 AM 43.9 °F 42.3 °F 43.9 °F 100% 29.83 in 10.0 mi West 3.5 mph - N/A   Overcast
7:55 AM 43.9 °F 41.3 °F 43.9 °F 100% 29.84 in 10.0 mi West 4.6 mph - N/A   Overcast
8:15 AM 43.9 °F 42.3 °F 43.9 °F 100% 29.85 in 10.0 mi West 3.5 mph - N/A   Overcast
8:35 AM 43.9 °F 42.3 °F 43.9 °F 100% 29.85 in 10.0 mi WSW 3.5 mph - N/A   Overcast
9:15 AM 44.1 °F 41.5 °F 44.1 °F 100% 29.86 in 10.0 mi West 4.6 mph - N/A   Overcast
9:35 AM 44.6 °F - 44.1 °F 98% 29.86 in 10.0 mi Calm Calm - N/A   Overcast
9:55 AM - - - N/A% - - North - - N/A   Unknown
10:15 AM 45.5 °F 42.5 °F 44.8 °F 97% 29.87 in 10.0 mi South 5.8 mph - 0.10 in   Overcast
10:35 AM 45.9 °F 44.6 °F 44.6 °F 95% 29.86 in 10.0 mi SSE 3.5 mph - 0.10 in   Overcast
10:55 AM 45.9 °F 43.6 °F 45.1 °F 97% 29.86 in 10.0 mi South 4.6 mph - 0.10 in   Overcast
11:15 AM 46.4 °F 45.2 °F 44.8 °F 94% 29.86 in 10.0 mi SSE 3.5 mph - N/A   Overcast
11:35 AM 46.6 °F - 44.6 °F 93% 29.85 in 10.0 mi Calm Calm - N/A   Overcast
11:55 AM 46.8 °F - 44.6 °F 92% 29.84 in 10.0 mi Calm Calm - N/A   Overcast
12:15 PM 47.5 °F - 44.6 °F 90% 29.84 in 10.0 mi Calm Calm - N/A   Overcast
12:55 PM 49.8 °F - 45.1 °F 84% 29.83 in 10.0 mi South 4.6 mph - N/A   Scattered Clouds
1:15 PM 50.0 °F - 45.5 °F 85% 29.83 in 10.0 mi SSW 4.6 mph - N/A   Scattered Clouds
1:35 PM 50.4 °F - 45.1 °F 82% 29.83 in 10.0 mi SW 3.5 mph - N/A   Scattered Clouds
2:35 PM 50.0 °F - 45.5 °F 85% 29.83 in 10.0 mi South 6.9 mph - N/A   Clear
2:55 PM 49.8 °F - 45.5 °F 85% 29.83 in 10.0 mi SSW 6.9 mph - N/A   Clear
3:15 PM 49.1 °F - 44.8 °F 85% 29.82 in 10.0 mi South 5.8 mph - N/A   Clear
3:35 PM 49.1 °F - 45.1 °F 86% 29.83 in 10.0 mi SSW 3.5 mph - N/A   Clear
3:55 PM 48.9 °F - 45.0 °F 86% 29.83 in 10.0 mi SSE 3.5 mph - N/A   Clear
4:15 PM 48.7 °F - 45.1 °F 87% 29.83 in 10.0 mi South 4.6 mph - N/A   Clear
4:55 PM 47.5 °F - 44.8 °F 90% 29.83 in 10.0 mi South 3.5 mph - N/A   Clear
5:15 PM 46.9 °F - 44.6 °F 92% 29.84 in 10.0 mi Calm Calm - N/A   Clear
5:35 PM 46.8 °F - 44.6 °F 92% 29.85 in 10.0 mi Calm Calm - N/A   Clear
5:55 PM 46.6 °F - 44.6 °F 93% 29.86 in 10.0 mi Calm Calm - N/A   Mostly Cloudy
6:15 PM 46.4 °F - 44.6 °F 93% 29.86 in 10.0 mi Calm Calm - N/A   Scattered Clouds
6:55 PM 44.8 °F 43.3 °F 44.6 °F 99% 29.86 in 10.0 mi South 3.5 mph - N/A   Mostly Cloudy
7:15 PM 45.1 °F - 44.6 °F 98% 29.86 in 10.0 mi Calm Calm - N/A   Mostly Cloudy
7:35 PM 44.2 °F - 44.2 °F 100% 29.86 in 10.0 mi Calm Calm - N/A   Overcast
7:55 PM 44.6 °F - 44.6 °F 100% 29.87 in 10.0 mi Calm Calm - N/A   Overcast
8:15 PM 44.2 °F - 44.2 °F 100% 29.87 in 10.0 mi Calm Calm - N/A   Overcast
8:35 PM 44.4 °F - 44.4 °F 100% 29.87 in 10.0 mi Calm Calm - N/A   Overcast
8:55 PM 44.4 °F - 44.4 °F 100% 29.88 in 10.0 mi Calm Calm - N/A   Overcast
9:15 PM 44.8 °F - 44.6 °F 99% 29.88 in 10.0 mi Calm Calm - N/A   Overcast
9:35 PM 45.0 °F - 44.8 °F 99% 29.88 in 10.0 mi Calm Calm - N/A   Overcast
9:55 PM 45.5 °F - 45.0 °F 98% 29.88 in 10.0 mi Calm Calm - N/A   Overcast
10:15 PM 45.5 °F 44.2 °F 44.8 °F 97% 29.88 in 10.0 mi WSW 3.5 mph - N/A   Overcast
10:35 PM 46.0 °F - 45.0 °F 96% 29.88 in 10.0 mi Calm Calm - N/A   Overcast
10:55 PM 46.2 °F - 44.8 °F 95% 29.88 in 10.0 mi Calm Calm - N/A   Overcast
11:15 PM 46.2 °F - 44.8 °F 95% 29.88 in 10.0 mi Calm Calm - N/A   Overcast
11:55 PM 45.7 °F - 45.1 °F 98% 29.88 in 10.0 mi Calm Calm - N/A   Overcast